• In Deutschland
  • Länderverzeichnis
  • Für 7 Tage
  • Wassertemperatur
  • Satellitenkarten
  • Wetterkarte
  • Widgets
  • user-avatar
    Anmelden

    Stündliche Wetter Eydelstedt

    Heute, 11 Dezember, Montag

    Zeit Temperatur Niederschläge Wind Luftdruck Luftfeuchtigkeit
    00:00 -2°C° 0,4 mm 7 m/S 729 mmHg 95%
    01:00 -2°C° 0 mm 6 m/S 730 mmHg 93%
    02:00 -3°C° 0 mm 6 m/S 731 mmHg 93%
    03:00 -2°C° 0 mm 5 m/S 732 mmHg 93%
    04:00 -4°C° 0 mm 5 m/S 733 mmHg 92%
    05:00 -3°C° 0 mm 4 m/S 734 mmHg 93%
    06:00 -4°C° 0 mm 3 m/S 734 mmHg 93%
    07:00 -1°C° 0 mm 1 m/S 735 mmHg 94%
    08:00 -1°C° 0 mm 1 m/S 735 mmHg 93%
    09:00 -1°C° 0 mm 1 m/S 736 mmHg 93%
    10:00 0°C° 0 mm 1 m/S 736 mmHg 93%
    11:00 -2°C° 0,1 mm 2 m/S 736 mmHg 93%
    12:00 -2°C° 0,1 mm 3 m/S 735 mmHg 93%
    13:00 -2°C° 0 mm 3 m/S 734 mmHg 93%
    14:00 -2°C° 0,6 mm 4 m/S 734 mmHg 94%
    15:00 -2°C° 0,6 mm 5 m/S 733 mmHg 94%
    16:00 -3°C° 0,6 mm 6 m/S 733 mmHg 94%
    17:00 -2°C° 0,3 mm 5 m/S 733 mmHg 94%
    18:00 -2°C° 0,3 mm 5 m/S 733 mmHg 95%
    19:00 -1°C° 0,3 mm 4 m/S 732 mmHg 95%
    20:00 -1°C° 0,7 mm 4 m/S 732 mmHg 96%
    21:00 0°C° 0,7 mm 4 m/S 732 mmHg 97%
    22:00 0°C° 0,7 mm 4 m/S 732 mmHg 97%
    23:00 0°C° 0,6 mm 4 m/S 733 mmHg 97%

    Morgen, 12 Dezember, Dienstag

    Zeit Temperatur Niederschläge Wind Luftdruck Luftfeuchtigkeit
    00:00 0°C° 0,6 mm 4 m/S 733 mmHg 97%
    01:00 0°C° 0,6 mm 4 m/S 733 mmHg 97%
    02:00 0°C° 0,2 mm 4 m/S 734 mmHg 97%
    03:00 0°C° 0,2 mm 5 m/S 735 mmHg 97%
    04:00 0°C° 0,2 mm 5 m/S 735 mmHg 98%
    05:00 -1°C° 0,2 mm 6 m/S 737 mmHg 96%
    06:00 -1°C° 0,2 mm 6 m/S 738 mmHg 94%
    07:00 -1°C° 0,2 mm 6 m/S 740 mmHg 93%
    08:00 -1°C° 0,2 mm 6 m/S 742 mmHg 93%
    09:00 -1°C° 0,2 mm 6 m/S 743 mmHg 93%
    10:00 -1°C° 0,2 mm 7 m/S 745 mmHg 92%
    11:00 -1°C° 0,5 mm 6 m/S 746 mmHg 93%
    12:00 -1°C° 0,5 mm 6 m/S 747 mmHg 95%
    13:00 -1°C° 0,5 mm 6 m/S 748 mmHg 96%
    14:00 -1°C° 0,2 mm 6 m/S 749 mmHg 95%
    15:00 0°C° 0,2 mm 5 m/S 751 mmHg 94%
    16:00 -1°C° 0,2 mm 5 m/S 752 mmHg 93%
    17:00 -1°C° 0 mm 5 m/S 752 mmHg 92%
    18:00 -2°C° 0 mm 4 m/S 753 mmHg 91%
    19:00 -2°C° 0 mm 4 m/S 754 mmHg 91%
    20:00 -2°C° 0 mm 4 m/S 755 mmHg 91%
    21:00 -2°C° 0 mm 5 m/S 755 mmHg 91%
    22:00 -2°C° 0 mm 5 m/S 756 mmHg 92%
    23:00 -2°C° 0 mm 5 m/S 756 mmHg 92%

    übermorgen, 13 Dezember, Mittwoch

    Zeit Temperatur Niederschläge Wind Luftdruck Luftfeuchtigkeit
    00:00 -2°C° 0 mm 5 m/S 756 mmHg 92%
    01:00 -3°C° 0 mm 6 m/S 755 mmHg 93%
    02:00 -3°C° 0 mm 6 m/S 755 mmHg 91%
    03:00 -3°C° 0 mm 6 m/S 755 mmHg 90%
    04:00 -3°C° 0 mm 6 m/S 755 mmHg 89%
    05:00 -3°C° 0 mm 6 m/S 754 mmHg 88%
    06:00 -2°C° 0 mm 7 m/S 754 mmHg 86%
    07:00 -2°C° 0 mm 7 m/S 753 mmHg 85%
    08:00 -2°C° 0,1 mm 7 m/S 752 mmHg 85%
    09:00 -1°C° 0,1 mm 8 m/S 751 mmHg 86%
    10:00 -1°C° 0,1 mm 8 m/S 750 mmHg 86%
    11:00 -1°C° 0,9 mm 8 m/S 749 mmHg 87%
    12:00 0°C° 0,9 mm 8 m/S 748 mmHg 89%
    13:00 0°C° 0,9 mm 9 m/S 747 mmHg 90%
    14:00 0°C° 1,1 mm 9 m/S 746 mmHg 91%
    15:00 0°C° 1,1 mm 9 m/S 745 mmHg 91%
    16:00 0°C° 1,1 mm 9 m/S 744 mmHg 92%
    17:00 0°C° 0,3 mm 8 m/S 744 mmHg 93%
    18:00 +2°C° 0,3 mm 7 m/S 743 mmHg 94%
    19:00 +2°C° 0,3 mm 6 m/S 742 mmHg 95%
    20:00 +2°C° 1,3 mm 7 m/S 741 mmHg 94%
    21:00 +2°C° 1,3 mm 7 m/S 740 mmHg 93%
    22:00 +2°C° 1,3 mm 8 m/S 739 mmHg 92%
    23:00 +1°C° 0,9 mm 8 m/S 739 mmHg 90%

    14 Dezember, Donnerstag

    Zeit Temperatur Niederschläge Wind Luftdruck Luftfeuchtigkeit
    00:00 +2°C° 0,9 mm 7 m/S 739 mmHg 87%
    01:00 +2°C° 0,9 mm 7 m/S 739 mmHg 84%
    02:00 +2°C° 0,1 mm 7 m/S 739 mmHg 84%
    03:00 0°C° 0,1 mm 7 m/S 740 mmHg 84%
    04:00 0°C° 0,1 mm 7 m/S 740 mmHg 83%
    05:00 -1°C° 0,2 mm 7 m/S 740 mmHg 81%
    06:00 -1°C° 0,2 mm 8 m/S 741 mmHg 79%
    07:00 -1°C° 0,2 mm 8 m/S 741 mmHg 76%
    08:00 -1°C° 0,1 mm 8 m/S 741 mmHg 76%
    09:00 -1°C° 0,1 mm 8 m/S 742 mmHg 75%
    10:00 -1°C° 0,1 mm 9 m/S 742 mmHg 75%
    11:00 0°C° 0 mm 8 m/S 742 mmHg 75%
    12:00 0°C° 0 mm 8 m/S 742 mmHg 75%
    13:00 0°C° 0 mm 8 m/S 742 mmHg 75%
    14:00 0°C° 0 mm 7 m/S 741 mmHg 78%
    15:00 +1°C° 0 mm 6 m/S 741 mmHg 81%
    16:00 0°C° 0 mm 5 m/S 740 mmHg 83%
    17:00 0°C° 0 mm 4 m/S 740 mmHg 86%
    18:00 0°C° 0 mm 4 m/S 739 mmHg 88%
    19:00 -1°C° 0 mm 4 m/S 739 mmHg 90%
    20:00 0°C° 0 mm 3 m/S 739 mmHg 91%
    21:00 0°C° 0 mm 3 m/S 739 mmHg 92%
    22:00 0°C° 0 mm 3 m/S 739 mmHg 93%
    23:00 0°C° 0 mm 3 m/S 739 mmHg 91%

    15 Dezember, Freitag

    Zeit Temperatur Niederschläge Wind Luftdruck Luftfeuchtigkeit
    00:00 -1°C° 0 mm 4 m/S 739 mmHg 90%
    01:00 -1°C° 0 mm 4 m/S 740 mmHg 89%
    02:00 -1°C° 0 mm 4 m/S 740 mmHg 89%
    03:00 -2°C° 0 mm 4 m/S 740 mmHg 89%
    04:00 -2°C° 0 mm 5 m/S 741 mmHg 89%
    05:00 -2°C° 0 mm 4 m/S 741 mmHg 89%
    06:00 -2°C° 0 mm 4 m/S 741 mmHg 89%
    07:00 -2°C° 0 mm 4 m/S 741 mmHg 89%
    08:00 -2°C° 0,2 mm 4 m/S 741 mmHg 90%
    09:00 0°C° 0,2 mm 3 m/S 741 mmHg 90%
    10:00 0°C° 0,2 mm 3 m/S 741 mmHg 90%
    11:00 +1°C° 0,3 mm 3 m/S 741 mmHg 91%
    12:00 +1°C° 0,3 mm 3 m/S 742 mmHg 92%
    13:00 +2°C° 0,3 mm 3 m/S 742 mmHg 92%
    14:00 +1°C° 0,1 mm 3 m/S 742 mmHg 93%
    15:00 +2°C° 0,1 mm 2 m/S 742 mmHg 94%
    16:00 +2°C° 0,1 mm 2 m/S 742 mmHg 95%
    17:00 +2°C° 0,1 mm 2 m/S 743 mmHg 95%
    18:00 +3°C° 0,1 mm 1 m/S 743 mmHg 95%
    19:00 +2°C° 0,1 mm 1 m/S 744 mmHg 96%
    20:00 +2°C° 0 mm 1 m/S 744 mmHg 96%
    21:00 +2°C° 0 mm 1 m/S 745 mmHg 96%
    22:00 +2°C° 0 mm 1 m/S 745 mmHg 96%
    23:00 +1°C° 0 mm 2 m/S 746 mmHg 96%

    16 Dezember, Samstag

    Zeit Temperatur Niederschläge Wind Luftdruck Luftfeuchtigkeit
    00:00 -1°C° 0 mm 2 m/S 746 mmHg 96%
    01:00 -1°C° 0 mm 2 m/S 746 mmHg 96%
    02:00 -1°C° 0 mm 2 m/S 747 mmHg 95%
    03:00 -1°C° 0 mm 2 m/S 747 mmHg 95%
    04:00 -1°C° 0 mm 3 m/S 748 mmHg 94%
    05:00 -1°C° 0 mm 3 m/S 748 mmHg 94%
    06:00 -1°C° 0 mm 3 m/S 748 mmHg 93%
    07:00 -1°C° 0 mm 3 m/S 749 mmHg 92%
    08:00 -1°C° 0 mm 3 m/S 749 mmHg 91%
    09:00 0°C° 0 mm 3 m/S 750 mmHg 91%
    10:00 0°C° 0 mm 3 m/S 750 mmHg 90%
    11:00 +1°C° 0 mm 3 m/S 750 mmHg 89%
    12:00 0°C° 0 mm 4 m/S 751 mmHg 87%
    13:00 +1°C° 0 mm 4 m/S 751 mmHg 86%
    14:00 +1°C° 0 mm 4 m/S 751 mmHg 88%
    15:00 0°C° 0 mm 4 m/S 751 mmHg 89%
    16:00 0°C° 0 mm 4 m/S 751 mmHg 91%
    17:00 -1°C° 0 mm 4 m/S 752 mmHg 91%
    18:00 -1°C° 0 mm 4 m/S 752 mmHg 91%
    19:00 -1°C° 0 mm 4 m/S 752 mmHg 91%
    20:00 -1°C° 0 mm 4 m/S 752 mmHg 90%
    21:00 -2°C° 0 mm 4 m/S 753 mmHg 89%
    22:00 -2°C° 0 mm 4 m/S 753 mmHg 89%
    23:00 -2°C° 0 mm 4 m/S 753 mmHg 89%
    Mehr zeigen